Date String (YYYY-MM-DD hh:mm:ss) UTC,Instrument flags,absolute air pressure of the measurement (hPa),sample flow rate (lpm),inlet stack bypass flow (lpm),air temperature of the measurement (°C),ambient temperature measured by the external sensor (°C),aerosol sample conditioner tube jacket temperature (°C),OPC LED temperature (°C),internal box temperature (°C),relative humidity of the measurement (%),span deviation,mass concentration of particles derived from Lorenz-Mie calculation of OPC scattering (μg/m³),mass concentration of particles derived from Lorenz-Mie calculation of OPC scattering (μg/m³),mass concentration of particles derived from Lorenz-Mie calculation of OPC scattering (μg/m³)
DateTimeUTC,F1_M11,P_M11,Q1_M11,Q2_M11,T1_M11,T2_M11,T3_M11,T4_M11,T5_M11,U1_M11,ZSPAN_M11,X0_M11,X2_M11,X1_M11
2023-06-29 18:00:00,SystemResetWarning,0831.8,5.00,000.00,030.4,025.6,000.0,038.4,031.0,32.6,-001.5,0019.73,0008.72,0007.29
2023-06-29 18:01:00,SystemResetWarning,0832.1,5.00,000.00,030.4,025.1,000.0,038.3,030.8,32.3,-001.0,0020.51,0008.77,0007.32
2023-06-29 18:02:00,SystemResetWarning,0832.2,5.00,000.00,030.2,025.3,000.0,038.4,030.6,32.8,-000.8,0021.13,0008.83,0007.35
2023-06-29 18:03:00,SystemResetWarning,0831.8,5.01,000.00,030.1,025.7,000.0,038.4,030.6,33.9,-000.6,0021.39,0008.90,0007.41
2023-06-29 18:04:00,SystemResetWarning,0831.7,5.00,000.00,030.0,026.1,000.0,038.4,030.7,33.5,-001.1,0019.22,0008.91,0007.42
2023-06-29 18:05:00,SystemResetWarning,0831.7,5.00,000.00,030.0,026.6,000.0,038.4,030.8,34.1,-000.8,0019.12,0008.92,0007.43
2023-06-29 18:06:00,SystemResetWarning,0831.7,4.98,000.00,030.0,026.9,000.0,038.4,030.9,34.5,-000.6,0019.17,0008.93,0007.44
2023-06-29 18:07:00,SystemResetWarning,0831.7,5.03,000.00,030.1,027.2,000.0,038.4,031.0,34.4,-000.0,0019.18,0008.96,0007.47
2023-06-29 18:08:00,SystemResetWarning,0831.6,4.98,000.00,030.2,027.5,000.0,038.4,031.1,33.6,-000.0,0020.05,0009.00,0007.50
2023-06-29 18:09:00,SystemResetWarning,0831.6,4.99,000.00,030.2,027.7,000.0,038.4,031.2,33.9,-000.3,0020.24,0009.00,0007.54
2023-06-29 18:10:00,SystemResetWarning,0831.7,5.00,000.00,030.3,027.9,000.0,038.5,031.2,33.8,-000.1,0019.14,0008.97,0007.55
2023-06-29 18:11:00,SystemResetWarning,0831.7,5.01,000.00,030.3,027.5,000.0,038.4,031.2,33.3,0000.5,0019.06,0008.96,0007.55
2023-06-29 18:12:00,SystemResetWarning,0831.6,4.97,000.00,030.3,025.9,000.0,038.3,031.0,33.0,0000.2,0018.87,0008.95,0007.55
2023-06-29 18:13:00,SystemResetWarning,0831.6,5.01,000.00,030.2,025.1,000.0,038.2,030.8,33.5,-000.2,0018.47,0008.97,0007.58
2023-06-29 18:14:00,SystemResetWarning,0831.6,5.01,000.00,030.1,025.1,000.0,038.2,030.6,33.8,-000.4,0018.08,0008.98,0007.57
2023-06-29 18:15:00,SystemResetWarning,0831.7,4.99,000.00,030.0,025.5,000.0,038.2,030.5,34.4,-000.4,0018.00,0009.01,0007.57
2023-06-29 18:16:00,SystemResetWarning,0831.7,5.01,000.00,029.9,025.9,000.0,038.2,030.6,34.4,-000.5,0018.39,0009.04,0007.60
2023-06-29 18:17:00,SystemResetWarning,0831.7,5.00,000.00,029.9,026.4,000.0,038.3,030.7,34.0,-001.0,0019.44,0009.11,0007.63
2023-06-29 18:18:00,SystemResetWarning,0831.7,4.99,000.00,029.9,026.8,000.0,038.3,030.8,34.1,-001.3,0019.78,0009.16,0007.66
2023-06-29 18:19:00,SystemResetWarning,0831.7,4.99,000.00,029.9,027.1,000.0,038.3,030.9,34.5,-001.3,0020.07,0009.21,0007.68
2023-06-29 18:20:00,SystemResetWarning,0831.6,5.01,000.00,029.9,027.4,000.0,038.3,031.0,34.8,-001.3,0020.29,0009.24,0007.68
2023-06-29 18:21:00,SystemResetWarning,0831.6,4.98,000.00,030.0,027.6,000.0,038.3,031.0,34.7,-001.5,0021.18,0009.33,0007.69
2023-06-29 18:22:00,SystemResetWarning,0831.6,5.01,000.00,030.1,027.8,000.0,038.3,031.1,35.4,-001.8,0021.74,0009.38,0007.70
2023-06-29 18:23:00,SystemResetWarning,0831.6,5.01,000.00,030.3,028.0,000.0,038.3,031.3,35.3,-001.8,0021.36,0009.39,0007.69
2023-06-29 18:24:00,SystemResetWarning,0831.6,4.98,000.00,030.6,027.2,000.0,038.3,031.4,33.4,-001.5,0021.28,0009.39,0007.67
2023-06-29 18:25:00,SystemResetWarning,0831.6,5.01,000.00,030.8,025.7,000.0,038.2,031.1,32.6,-001.3,0021.25,0009.44,0007.67
2023-06-29 18:26:00,SystemResetWarning,0831.6,5.02,000.00,030.8,025.1,000.0,038.2,031.0,33.1,-001.2,0021.38,0009.44,0007.67
2023-06-29 18:27:00,SystemResetWarning,0831.5,4.99,000.00,030.8,025.3,000.0,038.2,030.8,32.8,-001.2,0021.04,0009.39,0007.65
2023-06-29 18:28:00,SystemResetWarning,0831.5,4.99,000.00,030.7,025.7,000.0,038.3,030.7,33.1,-001.2,0019.74,0009.32,0007.62
2023-06-29 18:29:00,SystemResetWarning,0831.5,5.00,000.00,030.6,026.1,000.0,038.4,030.8,32.6,-001.1,0020.33,0009.32,0007.61
2023-06-29 18:30:00,SystemResetWarning,0831.5,5.01,000.00,030.6,026.6,000.0,038.5,030.9,32.3,-001.2,0020.53,0009.27,0007.61
2023-06-29 18:31:00,SystemResetWarning,0831.5,5.00,000.00,030.6,026.9,000.0,038.6,031.0,32.5,-001.3,0020.04,0009.28,0007.60
2023-06-29 18:32:00,SystemResetWarning,0831.5,4.99,000.00,030.6,027.2,000.0,038.6,031.1,32.4,-001.4,0020.59,0009.31,0007.63
2023-06-29 18:33:00,SystemResetWarning,0831.5,5.01,000.00,030.6,027.5,000.0,038.6,031.1,32.9,-001.1,0019.76,0009.29,0007.66
2023-06-29 18:34:00,SystemResetWarning,0831.5,5.00,000.00,030.7,027.7,000.0,038.7,031.2,32.7,-000.4,0019.80,0009.39,0007.69
2023-06-29 18:35:00,SystemResetWarning,0831.5,4.99,000.00,030.7,027.9,000.0,038.7,031.3,32.4,-000.9,0020.00,0009.46,0007.73
2023-06-29 18:36:00,SystemResetWarning,0831.4,4.99,000.00,030.7,027.6,000.0,038.7,031.3,32.9,-001.3,0021.20,0009.47,0007.79
2023-06-29 18:37:00,SystemResetWarning,0831.4,5.00,000.00,030.7,026.0,000.0,038.6,031.0,32.7,-001.4,0022.08,0009.51,0007.83
2023-06-29 18:38:00,SystemResetWarning,0831.4,5.00,000.00,030.6,025.1,000.0,038.5,030.9,33.3,-001.2,0023.53,0009.62,0007.89
2023-06-29 18:39:00,SystemResetWarning,0831.3,5.00,000.00,030.5,025.0,000.0,038.4,030.6,33.5,-001.1,0023.72,0009.72,0007.94
2023-06-29 18:40:00,SystemResetWarning,0831.3,5.01,000.00,030.3,025.4,000.0,038.5,030.6,33.5,-000.5,0023.35,0009.79,0007.99
2023-06-29 18:41:00,SystemResetWarning,0831.3,5.01,000.00,030.2,025.8,000.0,038.5,030.6,33.8,-000.4,0022.45,0009.85,0008.03
2023-06-29 18:42:00,SystemResetWarning,0831.3,4.99,000.00,030.2,026.3,000.0,038.5,030.8,34.0,-000.7,0022.60,0009.82,0008.06
2023-06-29 18:43:00,SystemResetWarning,0831.3,4.99,000.00,030.2,026.7,000.0,038.5,030.9,33.8,-000.6,0025.07,0009.83,0008.08
2023-06-29 18:44:00,SystemResetWarning,0831.3,5.01,000.00,030.2,027.0,000.0,038.5,030.9,34.2,-001.0,0026.05,0009.85,0008.10
2023-06-29 18:45:00,SystemResetWarning,0831.3,5.01,000.00,030.1,027.3,000.0,038.5,031.0,33.9,-001.7,0026.88,0009.90,0008.14
2023-06-29 18:46:00,SystemResetWarning,0831.3,4.99,000.00,030.2,027.6,000.0,038.5,031.1,33.9,-001.7,0026.79,0009.95,0008.16
2023-06-29 18:47:00,SystemResetWarning,0831.2,4.99,000.00,030.2,027.8,000.0,038.5,031.1,33.7,-001.7,0027.06,0010.02,0008.18
2023-06-29 18:48:00,SystemResetWarning,0831.2,5.00,000.00,030.2,028.0,000.0,038.5,031.2,33.5,-001.8,0026.81,0010.11,0008.21
2023-06-29 18:49:00,SystemResetWarning,0831.2,4.99,000.00,030.2,027.3,000.0,038.4,031.1,33.5,-002.1,0025.74,0010.15,0008.25
2023-06-29 18:50:00,SystemResetWarning,0831.2,5.01,000.00,030.2,025.6,000.0,038.3,030.9,33.7,-002.3,0026.15,0010.14,0008.28
2023-06-29 18:51:00,SystemResetWarning,0831.2,5.00,000.00,030.1,024.9,000.0,038.2,030.7,33.9,-002.6,0026.96,0010.11,0008.29
2023-06-29 18:52:00,SystemResetWarning,0831.2,5.01,000.00,029.9,025.0,000.0,038.2,030.4,34.1,-002.4,0027.59,0010.10,0008.31
2023-06-29 18:53:00,SystemResetWarning,0831.2,5.00,000.00,029.8,025.4,000.0,038.2,030.4,34.6,-002.2,0027.85,0010.21,0008.33
2023-06-29 18:54:00,SystemResetWarning,0831.3,5.00,000.00,029.7,025.9,000.0,038.2,030.6,34.3,-002.3,0025.00,0010.23,0008.36
2023-06-29 18:55:00,SystemResetWarning,0831.3,5.00,000.00,029.7,026.3,000.0,038.2,030.7,34.4,-002.3,0024.05,0010.30,0008.39
2023-06-29 18:56:00,SystemResetWarning,0831.3,4.98,000.00,029.7,026.7,000.0,038.2,030.8,34.3,-002.2,0024.05,0010.25,0008.39
2023-06-29 18:57:00,SystemResetWarning,0831.4,5.01,000.00,029.7,027.1,000.0,038.2,030.8,34.1,-002.2,0023.51,0010.20,0008.41
2023-06-29 18:58:00,SystemResetWarning,0831.3,5.02,000.00,029.7,027.3,000.0,038.2,030.9,34.7,-002.1,0022.79,0010.18,0008.44
2023-06-29 18:59:00,SystemResetWarning,0831.3,4.99,000.00,029.8,027.6,000.0,038.2,031.0,35.0,-002.1,0022.55,0010.17,0008.45
